Preview of NWS' New Version of Forecast
This preview is not operational and should not be used for support decisions.

Regional Weather Roundup (RWR)

Issued by National Weather Service (NWS)

                            
000
ASUS43 KDMX 180701
RWRIA 

WEATHER ROUNDUP FOR IOWA
NATIONAL WEATHER SERVICE DES MOINES IA
200 AM CDT WED SEP 18 2019

NOTE: "FAIR" INDICATES FEW OR NO CLOUDS BELOW 12,000 FEET WITH NO
SIGNIFICANT WEATHER AND/OR OBSTRUCTIONS TO VISIBILITY.

* - THESE STATIONS ARE NOT NWS STATIONS...THUS NOT UNDER NWS
QUALITY CONTROL.  THEY ALSO DO NOT REPORT WEATHER SUCH 
AS PRECIPITATION OR FOG.  

IAZ001>003-012>014-020>022-031>034-043>046-180800-
   NORTHWEST IOWA
  
CITY           SKY/WX    TMP DP  RH WIND       PRES   REMARKS
CARROLL *        N/A     72  68  88 SE6       29.93S                  
CHEROKEE *     CLEAR     74  69  83 S12       29.87F                  
DENISON *      CLEAR     75  70  83 S14G21    29.93S                  
LE MARS *      MOCLDY    77  70  78 S20G31    29.83S                  
SHELDON *      RAIN      73  72  94 S18G25    29.83F                  
SIOUX CITY     CLEAR     76  68  76 SE15      29.85S                  
SPENCER        CLEAR     76  67  73 S16G31    29.88S                  
STORM LAKE *   MOCLDY    73  68  83 S13       29.88S                  
$$
 
IAZ055>058-069>071-079>083-090>094-180800-
   SOUTHWEST IOWA
  
CITY           SKY/WX    TMP DP  RH WIND       PRES   REMARKS
ATLANTIC *     CLEAR     75  70  83 S7        29.94R                  
AUDUBON *        N/A     73  66  78 S8        29.96S                  
CLARINDA *     CLEAR     72  70  94 S5        29.98R                  
COUNCIL BLFS * CLEAR     73  72  94 S10       29.91R                  
CRESTON *      CLEAR     70  68  94 SE7       29.99R                  
HARLAN  *      PTCLDY    73  68  83 S9        29.94R                  
LAMONI         CLEAR     74  68  81 SE9       29.99S                  
RED OAK *      CLOUDY    73  68  83 S9        29.95R                  
SHENANDOAH *   CLEAR     73  68  83 SE8       29.94R                  
$$
 
IAZ047>049-059>061-072>074-084-180800-
   CENTRAL IOWA
  
CITY           SKY/WX    TMP DP  RH WIND       PRES   REMARKS
AMES           CLEAR     72  71  97 SE9       29.98S                  
ANKENY *       CLEAR     73  72  94 SE7       29.99S                  
BOONE *        CLEAR     73  72  94 SE8       29.97S                  
CHARITON *     CLEAR     73  73 100 SE8       30.00R                  
DES MOINES     MOCLDY    75  71  87 SE9       29.97S                  
GRINNELL*      CLEAR     70  67  88 SE10      30.04R                  
KNOXVILLE *      N/A     72  72 100 SE9       30.00R                  
MARSHALLTOWN   CLEAR     69  68  96 SE8       30.00S                  
NEWTON *       CLEAR     70  70 100 SE8       30.01R                  
PELLA *        CLEAR     72  67  84 SE6       30.02S                  
PERRY *        FAIR      72  69  91 SE8       29.96S                  
$$
 
IAZ004>006-015-016-023>025-035-036-180800-
   NORTH CENTRAL IOWA
  
CITY           SKY/WX    TMP DP  RH WIND       PRES   REMARKS
ALGONA *       CLEAR     73  73 100 SE16G23   29.92S                  
CLARION *      CLEAR     72  72 100 SE13      29.96S                  
ESTHERVILLE    PTCLDY    73  68  84 S15G24    29.90R THUNDER          
FORT DODGE *   CLEAR     75  71  87 SE10      29.95S                  
MASON CITY     CLEAR     70  65  84 SE13      29.99S                  
FOREST CITY *  FAIR      70  70 100 SE12      29.96F                  
IOWA FALLS *     N/A     69  64  83 SE9       30.01S                  
$$

IAZ007>011-017>019-026>030-037>042-050>054-066-180800-
   NORTHEAST IOWA
  
CITY           SKY/WX    TMP DP  RH WIND       PRES   REMARKS
CEDAR RAPIDS   FAIR      70  67  90 SE12      30.03F                  
CHARLES CITY * MOCLDY    70  68  94 S12G20    30.01S                  
CLINTON *      FAIR      67  65  93 SE15      30.09R                  
DECORAH *      FAIR      66  66 100 S9G16     30.02S FOG              
DUBUQUE        FAIR      66  64  93 S10       30.08R                  
MONTICELLO *   FAIR      68  68 100 SE10      30.06R                  
OELWEIN *      PTCLDY    68  68 100 SE12      30.04S                  
WATERLOO       FAIR      72  67  84 SE15      30.01R                  
$$
 
IAZ064-065-067-068-078-180800-
   EAST CENTRAL IOWA
  
CITY           SKY/WX    TMP DP  RH WIND       PRES   REMARKS
DAVENPORT      FAIR      68  64  87 SE8       30.09S                  
IOWA CITY      FAIR      70  66  87 SE7       30.06S                  
MUSCATINE *    FAIR      68  66  94 SE5       30.06R                  
QUAD CITIES    FAIR      66  63  90 E5        30.07S                  
$$
 
IAZ062-063-075>077-085>089-095>099-180800-
   SOUTHEAST IOWA
  
CITY           SKY/WX    TMP DP  RH WIND       PRES   REMARKS
BURLINGTON     CLEAR     71  65  81 SE8       30.06R                  
FAIRFIELD *    PTCLDY    70  68  94 SE8       30.04R                  
FORT MADISON * CLEAR     72  66  83 SE7       30.06S                  
KEOKUK *       CLEAR     70  68  94 SE6       30.05R                  
OSKALOOSA *    FAIR      70  66  88 SE6       30.03S                  
OTTUMWA        CLEAR     73  67  81 SE10      30.02S                  
WASHINGTON *     N/A    N/A N/A N/A MISG        N/A                   
$$

ABBREVIATIONS USED IN REMARKS
   TC - TEMPERATURES IN CELSIUS
  WCI - WIND CHILL INDEX
   HX - HEAT INDEX
  VSB - VISIBILITY  
$$